Weather History for PAEN - July, 2013

Change the Weather History Date:

Wednesday, July 24, 2013

  Actual Average Record
Temperature  
Mean Temperature 58 °F -  
Max Temperature 73 °F 62 °F 75 °F (1968)
Min Temperature 44 °F 48 °F 33 °F (1954)
Degree Days  
Heating Degree Days 6    
Growing Degree Days 8 (Base 50)    
Moisture  
Dew Point 50 °F    
Average Humidity 81    
Maximum Humidity 100    
Minimum Humidity 45    
Precipitation  
Precipitation 0.00 in - - ()
Sea Level Pressure  
Sea Level Pressure 30.01 in    
Wind  
Wind Speed 3 mph (SW)    
Max Wind Speed 9 mph    
Max Gust Speed -    
Visibility 7 miles    
Events Fog    
Averages and records for this station are not official NWS values.
T = Trace of Precipitation, MM = Missing Value Source: NWS Daily Summary

Daily Weather History Graph

Daily Weather History Graph

Search for Another Location

Airport or City:

Trip Planner

Search our weather history database for the weather conditions in past years. The results will help you decide how hot, cold, wet, or windy it might be!

Date:

Astronomy

Jul. 24, 2013 Rise Set
Actual Time 5:23 AM AKDT 10:57 PM AKDT
Civil Twilight 4:12 AM AKDT 12:07 AM AKDT
Nautical Twilight 2:43 AM AKDT 1:39 AM AKDT
Astronomical Twilight Sun does not set Sun does not set
Moon 10:56 PM AKDT (7/24) 8:58 AM AKDT (7/24)
Length of Visible Light 19h 54m
Length of Day
17h 33m
Waning Gibbous, 94% of the Moon is Illuminated
Jul 24
Waning Gibbous
Jul 29
Last Quarter
Aug 6
New
Aug 14
First Quarter
Aug 20
Full

Hourly Weather History & Observations

Time (AKDT) Temp. Windchill Dew Point Humidity Pressure Visibility Wind Dir Wind Speed Gust Speed Precip Events Conditions
12:53 AM 55.0 °F - 51.1 °F 86% 30.06 in 10.0 mi SSW 6.9 mph - N/A   Clear
1:53 AM 55.0 °F - 51.1 °F 86% 30.05 in 10.0 mi SSW 6.9 mph - N/A   Clear
2:53 AM 53.1 °F - 50.0 °F 89% 30.05 in 10.0 mi Calm Calm - N/A   Clear
3:53 AM 50.0 °F - 48.9 °F 96% 30.04 in 10.0 mi South 3.5 mph - N/A   Clear
4:53 AM 46.9 °F - 46.9 °F 100% 30.04 in 5.0 mi Calm Calm - N/A   Clear
4:56 AM 46.4 °F - 46.4 °F 100% 30.04 in 1.2 mi Calm Calm - N/A   Clear
5:01 AM 46.4 °F - 46.4 °F 100% 30.04 in 0.2 mi Calm Calm - N/A Fog Fog
5:10 AM 46.4 °F - 46.4 °F 100% 30.04 in 1.0 mi Calm Calm - N/A   Clear
5:21 AM 46.4 °F - 46.4 °F 100% 30.04 in 0.5 mi Calm Calm - N/A Fog Fog
5:27 AM 44.6 °F - 44.6 °F 100% 30.04 in 1.8 mi Calm Calm - N/A   Partly Cloudy
5:29 AM 44.6 °F 43.1 °F 44.6 °F 100% 30.04 in 3.0 mi NE 3.5 mph - N/A   Partly Cloudy
5:40 AM 46.4 °F - 46.4 °F 100% 30.03 in 1.0 mi Calm Calm - N/A   Mist
5:42 AM 46.4 °F - 46.4 °F 100% 30.03 in 0.5 mi Calm Calm - N/A Fog Fog
5:49 AM 46.4 °F - 46.4 °F 100% 30.03 in 0.2 mi Calm Calm - N/A Fog Fog
5:53 AM 46.0 °F - 46.0 °F 100% 30.04 in 10.0 mi Calm Calm - N/A   Clear
6:53 AM 48.0 °F - 48.0 °F 100% 30.03 in 10.0 mi Calm Calm - N/A   Clear
7:53 AM 55.9 °F - 52.0 °F 87% 30.03 in 10.0 mi Calm Calm - N/A   Clear
8:53 AM 61.0 °F - 52.0 °F 72% 30.03 in 10.0 mi Calm Calm - N/A   Clear
9:53 AM 64.0 °F - 52.0 °F 65% 30.02 in 10.0 mi Calm Calm - N/A   Clear
10:53 AM 66.9 °F - 52.0 °F 59% 30.02 in 10.0 mi SSW 3.5 mph - N/A   Clear
11:53 AM 69.1 °F - 51.1 °F 53% 30.01 in 10.0 mi West 5.8 mph - N/A   Clear
12:53 PM 70.0 °F - 52.0 °F 53% 30.01 in 10.0 mi WSW 6.9 mph - N/A   Clear
1:53 PM 72.0 °F - 52.0 °F 49% 30.00 in 10.0 mi Variable 5.8 mph - N/A   Clear
2:53 PM 73.9 °F - 51.1 °F 45% 29.99 in 10.0 mi SW 5.8 mph - N/A   Clear
3:53 PM 73.0 °F - 53.1 °F 49% 29.98 in 10.0 mi WSW 8.1 mph - N/A   Clear
4:53 PM 70.0 °F - 53.1 °F 55% 29.98 in 10.0 mi SW 8.1 mph - N/A   Clear
5:53 PM 64.0 °F - 53.1 °F 67% 29.97 in 10.0 mi SW 9.2 mph - N/A   Clear
6:53 PM 64.0 °F - 53.1 °F 67% 29.96 in 10.0 mi SW 9.2 mph - N/A   Clear
7:53 PM 61.0 °F - 52.0 °F 72% 29.97 in 10.0 mi SW 9.2 mph - N/A   Clear
8:53 PM 57.9 °F - 52.0 °F 81% 29.97 in 10.0 mi SSW 8.1 mph - N/A   Clear
9:53 PM 57.9 °F - 52.0 °F 81% 29.96 in 10.0 mi SSW 5.8 mph - N/A   Partly Cloudy
10:53 PM 57.9 °F - 52.0 °F 81% 29.96 in 10.0 mi SSW 5.8 mph - N/A   Scattered Clouds
11:53 PM 57.9 °F - 52.0 °F 81% 29.96 in 10.0 mi Calm Calm - N/A   Clear